Regional Weather Roundup
Issued by NWS Newport/Morehead, NC

Current Version | Previous Version | Text Only | Print | Product List | Glossary Off
Versions: 1 2 3 4 5 6 7 8 9 10 11 12 13 14 15 16 17 18 19 20 21 22 23 24 25 26 27 28 29 30 31 32 33 34 35 36 37 38 39 40 41 42 43 44 45 46 47 48 49 50
000 ASUS42 KMHX 250425 RWRMHX WEATHER ROUNDUP FOR EASTERN NORTH CAROLINA NATIONAL WEATHER SERVICE NEWPORT/MOREHEAD CITY NC 1200 AM EDT SAT MAR 25 2017 NOTE: "FAIR" INDICATES FEW OR NO CLOUDS BELOW 12,000 FEET WITH NO SIGNIFICANT WEATHER AND/OR OBSTRUCTIONS TO VISIBILITY NCZ015>017-031-032-045>047-102-103-250500- NORTH COAST CITY SKY/WX TMP DP RH WIND PRES REMARKS EDENTON CLEAR 59 50 73 SW9 30.35S ELIZABETH CITY CLEAR 57 49 74 SW13 30.33F KITTY HAWK NOT AVBL MANTEO CLEAR 56 49 78 SW12 30.36S $$ NCZ045>047-081-094-103-104-250500- CENTRAL COAST CITY SKY/WX TMP DP RH WIND PRES REMARKS FRISCO CLEAR 60 52 74 SW10 30.38S $$ NCZ095-097-098-100-101-250500- SOUTHERN COAST CITY SKY/WX TMP DP RH WIND PRES REMARKS BEAUFORT CLEAR 61 53 75 SW12 30.39S CEDAR ISLAND NOT AVBL JACKSONVILLE CLEAR 58 52 80 S6 30.38F PINEY ISLAND NOT AVBL WILMINGTON CLEAR 55 50 83 S6 30.39S $$ NCZ011>013-027>030-043-044-078>080-089-090>093-098-250500- COASTAL PLAIN CITY SKY/WX TMP DP RH WIND PRES REMARKS AHOSKIE N/A 58 49 70 S5 30.34R CLINTON CLEAR 58 50 74 S3 30.38S ELIZABETHTOWN CLEAR 56 50 78 S3 30.38S GOLDSBORO CLEAR 58 51 76 S5 30.35S GREENVILLE CLEAR 57 50 77 SW7 30.36F HAVELOCK CLEAR 57 49 74 SW6 30.40R KENANSVILLE CLEAR 57 48 72 CALM 30.38S KINSTON CLEAR 57 50 76 S7 30.38S NEW BERN CLEAR 58 51 78 S9 30.39R RICHLANDS CLEAR 54 50 86 S5 30.39S ROCKY MOUNT CLEAR 57 49 74 S6 30.35S WASHINGTON CLEAR 58 50 73 SW8 30.37S WHITEVILLE CLEAR 55 49 81 CALM 30.38S $$ AMZ130-135-150-152-154-156-158-170-250-252-270-ANZ085-086-088-633-658-670-250500- MARINE OBSERVATIONS STATION/POSITION TIME TEMP WIND PRES WAVE SWELL AIR SEA DIR/SP/G HT/PER HT/PER (UTC) (F) (DEG/KT/KT) (MB) (FT/S) (FT/S) CHESAPEAKE LIGHT NOT AVBL 64 E VA BEACH 0350 54 51 220/ 17/ 19 1026.4 4/ 5 2/10 DUCK 0400 59 47 200/ 16/ 21 1026.4 2 E DUCK 0400 48 N/A 2/11 OREGON INLET 0400 56 54 210/ 15/ 17 1027.9 13E OREGON INLT NOT AVBL HATTERAS CG 0400 60 54 220/ 8/ 12 1028.3 DIAMOND BUOY 0350 67 75 210/ 19/ 25 1028.6 4/11 3/11 CAPE LOOKOUT 0400 65 220/ 11/ 14 1028.8 BEAUFORT LAB 0400 62 52 220/ 5/ 9 1028.2 30 SE NEW RVR IN 0408 66 220/ 14/ 16 1029.4 30 SE NEW RVR IN 0343 66 N/A 4/ 7 2/11 27 SE WRIGHTSVLE 0408 64 62 190/ 6/ 10 1028.7 5 SE WRIGHTSVLE 0408 60 57 190/ 8/ 10 1029.0 225 S CAPE HAT 0350 64 73 100/ 14/ 17 1030.6 5/ 7 3/ 7 41 SE CHARLESTON 0350 69 71 140/ 16/ 17 1028.2 4/ 8 3/ 8 $$

USA.gov is the U.S. government's official web portal to all federal, state and local government web resources and services.